Weather History for Dyersburg, TN

Change the Weather History Date:

Sunday, February 17, 2013

  Actual Average Record
Temperature  
Mean Temperature 40 °F -  
Max Temperature 51 °F 50 °F 66 °F (2011)
Min Temperature 28 °F 34 °F 24 °F (2001)
Degree Days  
Heating Degree Days 26    
Moisture  
Dew Point 19 °F    
Average Humidity 43    
Maximum Humidity 60    
Minimum Humidity 32    
Precipitation  
Precipitation 0.00 in - - ()
Sea Level Pressure  
Sea Level Pressure 30.19 in    
Wind  
Wind Speed 4 mph (SSE)    
Max Wind Speed 14 mph    
Max Gust Speed 17 mph    
Visibility 10 miles    
Events      
Averages and records for this station are not official NWS values.
T = Trace of Precipitation, MM = Missing Value Source: NWS Daily Summary

Daily Weather History Graph

Daily Weather History Graph

Search for Another Location

Airport:

Trip Planner

Search our weather history database for the weather conditions in past years. The results will help you decide how hot, cold, wet, or windy it might be!

Date:

Astronomy

Feb. 17, 2013 Rise Set
Actual Time 6:42 AM CST 5:41 PM CST
Civil Twilight 6:16 AM CST 6:07 PM CST
Nautical Twilight 5:46 AM CST 6:37 PM CST
Astronomical Twilight 5:16 AM CST 7:07 PM CST
Moon 10:50 AM CST (2/17) 12:22 AM CST (2/17)
Length of Visible Light 11h 51m
Length of Day
10h 59m
Waxing Crescent, 49% of the Moon is Illuminated
Feb 17
Waxing Crescent
Feb 17
First Quarter
Feb 25
Full
Mar 4
Last Quarter
Mar 11
New

Hourly Weather History & Observations

Time (CST) Temp. Windchill Dew Point Humidity Pressure Visibility Wind Dir Wind Speed Gust Speed Precip Events Conditions
12:15 AM 28.4 °F - 10.4 °F 47% 30.25 in 10.0 mi Calm Calm - N/A   Mostly Cloudy
12:35 AM 28.4 °F 24.6 °F 10.4 °F 47% 30.24 in 10.0 mi South 3.5 mph - N/A   Overcast
12:55 AM 28.4 °F 24.6 °F 10.4 °F 47% 30.25 in 10.0 mi South 3.5 mph - N/A   Overcast
1:15 AM 28.4 °F 24.6 °F 12.2 °F 51% 30.24 in 10.0 mi South 3.5 mph - N/A   Overcast
1:35 AM 28.4 °F - 12.2 °F 51% 30.24 in 10.0 mi Calm Calm - N/A   Overcast
1:55 AM 28.4 °F - 12.2 °F 51% 30.23 in 10.0 mi Calm Calm - N/A   Overcast
2:15 AM 30.2 °F 26.7 °F 12.2 °F 47% 30.24 in 10.0 mi South 3.5 mph - N/A   Overcast
2:35 AM 30.2 °F - 14.0 °F 51% 30.24 in 10.0 mi Calm Calm - N/A   Overcast
2:55 AM 30.2 °F - 14.0 °F 51% 30.23 in 10.0 mi Calm Calm - N/A   Overcast
3:15 AM 30.2 °F 26.7 °F 14.0 °F 51% 30.23 in 10.0 mi SSW 3.5 mph - N/A   Overcast
3:35 AM 30.2 °F - 15.8 °F 55% 30.23 in 10.0 mi Calm Calm - N/A   Overcast
3:55 AM 30.2 °F - 15.8 °F 55% 30.23 in 10.0 mi Calm Calm - N/A   Overcast
4:15 AM 30.2 °F - 15.8 °F 55% 30.23 in 10.0 mi Calm Calm - N/A   Overcast
4:35 AM 30.2 °F - 15.8 °F 55% 30.23 in 10.0 mi Calm Calm - N/A   Overcast
4:55 AM 30.2 °F - 15.8 °F 55% 30.24 in 10.0 mi Calm Calm - N/A   Overcast
5:15 AM 30.2 °F - 15.8 °F 55% 30.24 in 10.0 mi Calm Calm - N/A   Overcast
5:35 AM 30.2 °F - 17.6 °F 60% 30.25 in 10.0 mi Calm Calm - N/A   Overcast
5:55 AM 32.0 °F - 15.8 °F 51% 30.25 in 10.0 mi Calm Calm - N/A   Overcast
6:15 AM 32.0 °F 27.5 °F 15.8 °F 51% 30.25 in 10.0 mi South 4.6 mph - N/A   Overcast
6:35 AM 33.8 °F 30.8 °F 15.8 °F 48% 30.25 in 10.0 mi South 3.5 mph - N/A   Overcast
6:55 AM 33.8 °F 30.8 °F 15.8 °F 48% 30.25 in 10.0 mi South 3.5 mph - N/A   Overcast
7:15 AM 33.8 °F - 15.8 °F 48% 30.25 in 10.0 mi Calm Calm - N/A   Overcast
7:35 AM 33.8 °F 30.8 °F 15.8 °F 48% 30.26 in 10.0 mi South 3.5 mph - N/A   Overcast
7:55 AM 33.8 °F - 17.6 °F 52% 30.26 in 10.0 mi Calm Calm - N/A   Overcast
8:15 AM 33.8 °F 30.8 °F 17.6 °F 52% 30.27 in 10.0 mi South 3.5 mph - N/A   Overcast
8:35 AM 35.6 °F 31.7 °F 17.6 °F 48% 30.27 in 10.0 mi South 4.6 mph - N/A   Overcast
8:55 AM 35.6 °F 31.7 °F 17.6 °F 48% 30.27 in 10.0 mi SSE 4.6 mph - N/A   Overcast
9:15 AM 35.6 °F 30.7 °F 19.4 °F 52% 30.27 in 10.0 mi South 5.8 mph - N/A   Overcast
9:35 AM 37.4 °F 32.1 °F 19.4 °F 48% 30.27 in 10.0 mi South 6.9 mph - N/A   Overcast
9:55 AM 39.2 °F 35.0 °F 19.4 °F 45% 30.27 in 10.0 mi SSE 5.8 mph - N/A   Overcast
10:15 AM 39.2 °F 33.6 °F 19.4 °F 45% 30.27 in 10.0 mi South 8.1 mph - N/A   Overcast
10:35 AM 41.0 °F 35.8 °F 19.4 °F 42% 30.27 in 10.0 mi South 8.1 mph - N/A   Overcast
10:55 AM 42.8 °F 38.0 °F 19.4 °F 39% 30.27 in 10.0 mi South 8.1 mph - N/A   Overcast
11:15 AM 42.8 °F 38.0 °F 19.4 °F 39% 30.25 in 10.0 mi SSE 8.1 mph - N/A   Overcast
11:35 AM 44.6 °F 39.2 °F 21.2 °F 39% 30.24 in 10.0 mi South 10.4 mph - N/A   Scattered Clouds
11:55 AM 44.6 °F 39.2 °F 21.2 °F 39% 30.23 in 10.0 mi SSE 10.4 mph 16.1 mph N/A   Clear
12:15 PM 46.4 °F 41.5 °F 21.2 °F 37% 30.22 in 10.0 mi SE 10.4 mph 16.1 mph N/A   Clear
12:35 PM 46.4 °F 41.9 °F 21.2 °F 37% 30.21 in 10.0 mi South 9.2 mph - N/A   Clear
12:55 PM 48.2 °F - 21.2 °F 34% 30.20 in 10.0 mi SSE 10.4 mph 17.3 mph N/A   Clear
1:15 PM 48.2 °F - 21.2 °F 34% 30.18 in 10.0 mi South 8.1 mph - N/A   Clear
1:35 PM 48.2 °F - 21.2 °F 34% 30.17 in 10.0 mi South 11.5 mph 17.3 mph N/A   Clear
1:55 PM 48.2 °F - 23.0 °F 37% 30.17 in 10.0 mi SE 10.4 mph - N/A   Clear
2:15 PM 50.0 °F - 21.2 °F 32% 30.16 in 10.0 mi SSE 9.2 mph - N/A   Clear
2:35 PM 50.0 °F - 21.2 °F 32% 30.15 in 10.0 mi SSE 9.2 mph - N/A   Clear
2:55 PM 51.8 °F - 23.0 °F 33% 30.14 in 10.0 mi SE 12.7 mph - N/A   Clear
3:15 PM 51.8 °F - 23.0 °F 33% 30.14 in 10.0 mi SSE 13.8 mph - N/A   Clear
3:35 PM 51.8 °F - 23.0 °F 33% 30.13 in 10.0 mi South 9.2 mph 17.3 mph N/A   Clear
3:55 PM 51.8 °F - 23.0 °F 33% 30.12 in 10.0 mi South 8.1 mph 16.1 mph N/A   Clear
4:15 PM 51.8 °F - 24.8 °F 35% 30.12 in 10.0 mi South 8.1 mph 16.1 mph N/A   Clear
4:35 PM 51.8 °F - 24.8 °F 35% 30.12 in 10.0 mi South 10.4 mph - N/A   Clear
4:55 PM 51.8 °F - 23.0 °F 33% 30.11 in 10.0 mi SSE 9.2 mph - N/A   Clear
5:15 PM 50.0 °F - 23.0 °F 35% 30.11 in 10.0 mi SSE 6.9 mph - N/A   Clear
5:35 PM 50.0 °F - 23.0 °F 35% 30.11 in 10.0 mi SSE 6.9 mph - N/A   Clear
5:55 PM 48.2 °F - 23.0 °F 37% 30.11 in 10.0 mi SSE 5.8 mph - N/A   Clear
6:15 PM 46.4 °F 43.5 °F 23.0 °F 40% 30.11 in 10.0 mi SE 5.8 mph - N/A   Clear
6:35 PM 46.4 °F 43.5 °F 23.0 °F 40% 30.11 in 10.0 mi SSE 5.8 mph - N/A   Clear
6:55 PM 44.6 °F 41.4 °F 23.0 °F 43% 30.11 in 10.0 mi SE 5.8 mph - N/A   Clear
7:15 PM 44.6 °F 41.4 °F 21.2 °F 39% 30.11 in 10.0 mi SE 5.8 mph - N/A   Clear
7:35 PM 44.6 °F 40.2 °F 21.2 °F 39% 30.11 in 10.0 mi SE 8.1 mph - N/A   Clear
7:55 PM 44.6 °F 40.7 °F 21.2 °F 39% 30.12 in 10.0 mi SSE 6.9 mph - N/A   Clear
8:15 PM 44.6 °F 40.7 °F 21.2 °F 39% 30.12 in 10.0 mi SSE 6.9 mph - N/A   Clear
9:15 PM 44.6 °F 39.7 °F 21.2 °F 39% 30.11 in 10.0 mi SSE 9.2 mph - N/A   Clear
9:35 PM 44.6 °F 39.2 °F 21.2 °F 39% 30.11 in 10.0 mi SSE 10.4 mph 17.3 mph N/A   Clear
9:55 PM 44.6 °F 39.7 °F 21.2 °F 39% 30.11 in 10.0 mi SSE 9.2 mph - N/A   Clear
10:15 PM 42.8 °F 38.0 °F 21.2 °F 42% 30.10 in 10.0 mi SSE 8.1 mph - N/A   Clear
10:35 PM 42.8 °F 39.3 °F 21.2 °F 42% 30.09 in 10.0 mi SSE 5.8 mph - N/A   Clear
10:55 PM 42.8 °F 37.5 °F 21.2 °F 42% 30.09 in 10.0 mi SSE 9.2 mph - N/A   Clear
11:15 PM 42.8 °F 38.0 °F 21.2 °F 42% 30.09 in 10.0 mi SSE 8.1 mph - N/A   Clear
11:35 PM 42.8 °F 37.5 °F 21.2 °F 42% 30.08 in 10.0 mi SSE 9.2 mph 16.1 mph N/A   Clear